DW1274 Weather Reports


Display with metric or nautical units.
time (UTC)temp
F
wind
direction
speed
MPH
gust
MPH
rain 1hr
in
rain 24hr
in
rain mn
in
humidity
%
barometer
mb
20260831145201 83 16 4.0 8.0 0.00 0.01 0.00 81 1017.4
20260831144702 83 339 4.0 8.0 0.00 0.01 0.00 81 1017.4
20260831144203 83 9 3.0 8.0 0.00 0.01 0.00 82 1017.3
20260831143702 83 47 3.0 8.0 0.00 0.01 0.00 81 1017.2
20260831143200 83 326 3.0 9.0 0.00 0.01 0.00 82 1017.2
20260831142701 82 5 4.0 9.0 0.00 0.01 0.00 83 1017.1
20260831142201 82 21 3.0 7.0 0.00 0.01 0.00 85 1017.1
20260831141202 82 17 4.0 8.0 0.00 0.01 0.00 85 1017.0
20260831140703 82 358 3.0 6.0 0.00 0.01 0.00 85 1016.9
20260831140202 82 27 3.0 6.0 0.00 0.01 0.00 85 1016.9
20260831135201 83 0 2.0 6.0 0.00 0.01 0.00 84 1016.8
20260831134702 83 10 2.0 6.0 0.00 0.01 0.00 83 1016.8
20260831134201 83 343 2.0 6.0 0.00 0.01 0.00 83 1016.7
20260831133701 83 351 2.0 6.0 0.00 0.01 0.00 85 1016.6
20260831133201 83 333 2.0 6.0 0.00 0.01 0.00 84 1016.6
20260831132201 83 332 2.0 5.0 0.00 0.01 0.00 84 1016.7
20260831131201 82 345 3.0 6.0 0.00 0.01 0.00 87 1016.7
20260831130701 82 19 2.0 6.0 0.00 0.01 0.00 86 1016.7
20260831130201 81 0 2.0 5.0 0.00 0.01 0.00 86 1016.6
20260831125701 82 34 3.0 7.0 0.00 0.01 0.00 86 1016.6
20260831124700 81 356 2.0 6.0 0.00 0.01 0.00 86 1016.7
20260831124200 80 47 2.0 6.0 0.00 0.01 0.00 87 1016.7
20260831123701 80 212 2.0 6.0 0.00 0.01 0.00 88 1016.7
20260831123200 79 0 2.0 6.0 0.00 0.01 0.00 90 1016.6
20260831122700 78 292 4.0 7.0 0.00 0.01 0.00 91 1016.5
20260831122203 78 26 2.0 7.0 0.00 0.01 0.00 92 1016.4
20260831121700 78 29 2.0 6.0 0.00 0.01 0.00 93 1016.4
20260831121201 77 28 3.0 6.0 0.00 0.01 0.00 93 1016.3
20260831120702 76 40 3.0 5.0 0.00 0.01 0.00 94 1016.2
20260831120202 76 14 3.0 5.0 0.00 0.01 0.00 94 1016.2
20260831115705 76 19 3.0 4.0 0.00 0.01 0.00 94 1016.3
20260831114648 76 22 2.0 3.0 0.00 0.01 0.00 94 1016.2
20260831113648 75 9 0.0 3.0 0.00 0.01 0.00 94 1016.1
20260831113148 75 0 1.0 2.0 0.00 0.01 0.00 94 1016.0
20260831112632 75 32 2.0 3.0 0.00 0.01 0.00 94 1016.0
20260831112132 75 349 2.0 3.0 0.00 0.01 0.00 94 1015.9
20260831111632 75 319 0.0 2.0 0.00 0.01 0.00 94 1015.9
20260831110634 75 0 0.0 2.0 0.00 0.01 0.00 94 1015.7
20260831105630 75 6 2.0 4.0 0.00 0.01 0.00 93 1015.7
20260831105131 75 7 2.0 4.0 0.00 0.01 0.00 93 1015.7
20260831104130 75 13 3.0 5.0 0.00 0.01 0.00 93 1015.6
20260831103631 75 6 3.0 5.0 0.00 0.01 0.00 93 1015.6
20260831103131 75 12 3.0 4.0 0.00 0.01 0.00 93 1015.6
20260831102633 75 9 2.0 3.0 0.00 0.01 0.00 93 1015.5
20260831102131 75 354 1.0 3.0 0.00 0.01 0.00 93 1015.5
20260831101630 75 317 0.0 2.0 0.00 0.01 0.00 93 1015.4
20260831101130 75 0 0.0 0.0 0.00 0.01 0.00 93 1015.3
20260831100630 75 0 0.0 2.0 0.00 0.01 0.00 93 1015.3
20260831100130 75 0 1.0 2.0 0.00 0.01 0.00 93 1015.4
20260831095629 75 0 1.0 2.0 0.00 0.01 0.00 93 1015.4
20260831095130 75 349 1.0 3.0 0.00 0.01 0.00 93 1015.3
20260831094630 75 357 2.0 4.0 0.00 0.01 0.00 93 1015.3
20260831094130 75 30 2.0 4.0 0.00 0.01 0.00 93 1015.4
20260831093620 75 10 2.0 4.0 0.00 0.01 0.00 93 1015.3
20260831092603 75 0 1.0 3.0 0.00 0.01 0.00 93 1015.4
20260831092103 75 11 1.0 3.0 0.00 0.01 0.00 93 1015.4
20260831091602 75 51 2.0 4.0 0.00 0.01 0.00 93 1015.3
20260831091102 75 13 2.0 4.0 0.00 0.01 0.00 93 1015.3
20260831090602 75 11 2.0 4.0 0.00 0.01 0.00 93 1015.3
20260831085606 75 355 2.0 4.0 0.00 0.01 0.00 93 1015.3
20260831085051 75 1 2.0 4.0 0.00 0.01 0.00 93 1015.2
20260831084550 75 13 2.0 4.0 0.00 0.02 0.00 93 1015.2
20260831084050 75 353 2.0 4.0 0.00 0.02 0.00 93 1015.2
20260831083551 75 13 2.0 4.0 0.00 0.09 0.00 93 1015.2
20260831083036 75 18 2.0 4.0 0.00 0.14 0.00 93 1015.3
20260831082536 75 352 1.0 2.0 0.00 0.14 0.00 93 1015.2
20260831082036 75 343 1.0 2.0 0.00 0.14 0.00 93 1015.2
20260831081535 75 16 1.0 2.0 0.00 0.14 0.00 93 1015.2
20260831081036 75 359 1.0 2.0 0.00 0.14 0.00 93 1015.1
20260831080538 75 16 1.0 2.0 0.00 0.14 0.00 93 1015.1
20260831075534 75 335 0.0 2.0 0.00 0.14 0.00 93 1015.2
20260831075034 75 357 0.0 2.0 0.00 0.14 0.00 93 1015.2
20260831074533 75 0 0.0 1.0 0.00 0.14 0.00 93 1015.3
20260831073535 75 2 0.0 1.0 0.00 0.14 0.00 93 1015.3
20260831073035 75 0 0.0 1.0 0.00 0.14 0.00 93 1015.4
20260831072535 75 96 0.0 1.0 0.00 0.14 0.00 93 1015.4
20260831072036 75 0 0.0 0.0 0.00 0.14 0.00 93 1015.4
20260831071530 75 0 0.0 0.0 0.00 0.14 0.00 92 1015.5
20260831071030 75 0 0.0 2.0 0.00 0.14 0.00 92 1015.5
20260831070530 75 0 0.0 2.0 0.00 0.14 0.00 92 1015.6
20260831065523 75 343 0.0 2.0 0.00 0.14 0.00 92 1015.7
20260831065022 75 321 0.0 1.0 0.00 0.14 0.00 92 1015.7
20260831064522 75 0 0.0 1.0 0.00 0.14 0.00 92 1015.7
20260831064022 75 0 0.0 2.0 0.00 0.14 0.00 92 1015.7
20260831063523 76 0 1.0 2.0 0.00 0.14 0.00 92 1015.6
20260831063008 76 230 1.0 2.0 0.00 0.14 0.00 92 1015.7
20260831062508 76 345 1.0 2.0 0.00 0.14 0.00 92 1015.8
20260831062007 76 0 2.0 4.0 0.00 0.14 0.00 92 1015.8
20260831060002 76 17 2.0 5.0 0.00 0.14 0.00 91 1016.0
20260831055456 76 345 3.0 5.0 0.00 0.14 0.00 91 1015.9
20260831054954 76 11 3.0 4.0 0.00 0.14 0.00 91 1016.0
20260831054453 76 356 2.0 4.0 0.00 0.14 0.00 91 1016.0
20260831053954 76 351 1.0 3.0 0.00 0.14 0.00 91 1016.1
20260831053453 76 358 0.0 3.0 0.00 0.14 0.00 91 1016.1
20260831052953 76 0 1.0 3.0 0.00 0.14 0.00 91 1016.1
20260831052458 76 20 2.0 4.0 0.00 0.14 0.00 91 1016.1
20260831051954 76 13 2.0 4.0 0.00 0.14 0.00 91 1016.2
20260831051453 76 354 2.0 3.0 0.00 0.14 0.00 91 1016.2
20260831050453 76 16 3.0 5.0 0.00 0.14 0.00 91 1016.1
20260831045954 77 358 3.0 5.0 0.00 0.14 0.00 91 1016.1
20260831045453 77 339 3.0 4.0 0.00 0.14 0.00 91 1016.1
20260831044953 77 358 2.0 3.0 0.00 0.14 0.00 91 1016.1
20260831044452 77 21 2.0 3.0 0.00 0.14 0.00 91 1016.1
20260831043950 77 12 2.0 3.0 0.00 0.14 0.00 91 1016.1
20260831042939 77 345 1.0 3.0 0.00 0.14 0.00 91 1016.0
20260831042439 77 352 0.0 2.0 0.00 0.14 0.00 90 1016.0
20260831041939 77 0 0.0 1.0 0.00 0.14 0.00 90 1016.2
20260831041439 77 0 0.0 0.0 0.00 0.14 0.00 90 1016.2
20260831040938 77 0 0.0 0.0 0.00 0.14 0.00 90 1016.1
20260831040439 77 0 1.0 3.0 0.00 0.14 0.00 90 1016.2
20260831035939 77 0 1.0 3.0 0.00 0.14 0.14 90 1016.2
20260831035438 77 0 0.0 2.0 0.00 0.14 0.14 89 1016.3
20260831034939 77 0 0.0 3.0 0.00 0.14 0.14 89 1016.3
20260831034430 78 0 2.0 3.0 0.00 0.14 0.14 89 1016.3
20260831033426 78 30 2.0 4.0 0.00 0.14 0.14 89 1016.3
20260831032926 77 243 2.0 4.0 0.00 0.14 0.14 89 1016.3
20260831032425 77 356 3.0 4.0 0.00 0.14 0.14 88 1016.4
20260831031426 77 17 2.0 3.0 0.00 0.14 0.14 88 1016.5
20260831030927 78 354 1.0 2.0 0.00 0.14 0.14 88 1016.6
20260831025927 78 5 1.0 3.0 0.00 0.14 0.14 87 1016.7
20260831025411 78 347 1.0 2.0 0.00 0.14 0.14 87 1016.7
20260831023902 79 0 0.0 2.0 0.00 0.14 0.14 86 1016.6
20260831023402 79 0 0.0 4.0 0.00 0.14 0.14 86 1016.6
20260831022902 79 0 0.0 4.0 0.00 0.14 0.14 86 1016.6
20260831022401 79 0 1.0 3.0 0.00 0.14 0.14 85 1016.6
20260831021902 79 40 2.0 3.0 0.00 0.14 0.14 85 1016.6
20260831021357 79 29 2.0 4.0 0.00 0.14 0.14 85 1016.6
20260831020857 79 15 2.0 4.0 0.00 0.14 0.14 85 1016.6
20260831020353 79 244 1.0 7.0 0.00 0.14 0.14 85 1016.6
20260831015351 80 0 2.0 4.0 0.00 0.14 0.14 85 1016.4
20260831014851 0 0.0 0.0 0.00 0.14 0.14
20260831014331 0 0.0 0.0 0.00 0.14 0.14
20260831013831 0 0.0 0.0 0.00 0.14 0.14
20260831013330 80 0 2.0 0.0 0.00 0.14 0.14 85 1016.4
20260831012830 80 0 2.0 4.0 0.00 0.14 0.14 85 1016.4
20260831012333 80 0 2.0 4.0 0.00 0.15 0.14 85 1016.4
20260831011830 80 28 2.0 4.0 0.00 0.15 0.14 85 1016.4
20260831011302 81 37 2.0 4.0 0.00 0.15 0.14 84 1016.3
20260831010803 0 0 0.0 0.0 0.00 0.16 0.14
20260831005802 0 0.0 0.0 0.00 0.16 0.14
20260831005302 0 0.0 0.0 0.00 0.16 0.14
20260831004756 0 0.0 0.0 0.00 0.17 0.14
20260831004231 81 5 1.0 0.0 0.00 0.17 0.14 84 1016.1
20260831003730 81 5 1.0 3.0 0.00 0.17 0.14 84 1016.1
20260831003233 81 5 1.0 3.0 0.00 0.17 0.14 84 1016.1
20260831002729 81 61 1.0 3.0 0.00 0.17 0.14 84 1016.0
20260831002229 81 0 1.0 3.0 0.00 0.17 0.14 83 1016.1
20260831001729 81 39 1.0 3.0 0.00 0.17 0.14 83 1016.0
20260831001229 81 0 1.0 4.0 0.00 0.17 0.14 83 1016.0
20260831000229 82 35 1.0 3.0 0.00 0.17 0.14 81 1015.9
20260830235730 82 19 2.0 3.0 0.00 0.17 0.14 81 1016.0
20260830235230 82 15 2.0 5.0 0.00 0.17 0.14 80 1016.0
20260830234721 83 84 1.0 5.0 0.00 0.17 0.14 79 1015.9
20260830234217 83 0 1.0 4.0 0.00 0.17 0.14 78 1015.9
20260830233217 83 0 2.0 5.0 0.00 0.17 0.14 77 1015.9
20260830232717 83 0 2.0 6.0 0.00 0.17 0.14 77 1015.8
20260830232217 83 0 2.0 6.0 0.00 0.17 0.14 77 1015.9
20260830230715 84 53 3.0 8.0 0.00 0.17 0.14 76 1015.7
20260830225715 84 114 2.0 7.0 0.00 0.17 0.14 76 1015.7
20260830224715 84 46 2.0 7.0 0.00 0.17 0.14 77 1015.6
20260830223715 84 38 3.0 8.0 0.00 0.17 0.14 78 1015.6
20260830223214 84 0 4.0 8.0 0.00 0.17 0.14 77 1015.6
20260830222216 84 48 6.0 13.0 0.00 0.17 0.14 75 1015.5
20260830221712 85 34 4.0 9.0 0.00 0.17 0.14 74 1015.4
20260830221214 85 42 4.0 12.0 0.00 0.17 0.14 74 1015.4
20260830220713 85 69 5.0 12.0 0.00 0.17 0.14 74 1015.3
20260830220213 85 29 5.0 11.0 0.00 0.17 0.14 74 1015.2
20260830215712 85 81 6.0 11.0 0.00 0.17 0.14 73 1015.2
20260830215213 86 59 5.0 10.0 0.00 0.17 0.14 72 1015.1
20260830214713 86 95 4.0 9.0 0.00 0.17 0.14 73 1015.2
20260830214213 86 31 4.0 9.0 0.00 0.17 0.14 73 1015.2
20260830213714 86 49 5.0 11.0 0.00 0.17 0.14 73 1015.2
20260830213213 86 26 5.0 11.0 0.00 0.17 0.14 72 1015.1
20260830212712 86 50 5.0 11.0 0.00 0.17 0.14 71 1015.1
20260830211708 85 107 4.0 8.0 0.00 0.17 0.14 71 1015.1
20260830211209 86 148 3.0 8.0 0.00 0.17 0.14 71 1015.1
20260830210707 86 33 4.0 8.0 0.00 0.18 0.14 70 1015.1
20260830210206 86 124 3.0 10.0 0.00 0.19 0.14 70 1015.1
20260830205702 86 83 4.0 11.0 0.00 0.19 0.14 70 1015.2
20260830205202 86 24 4.0 11.0 0.00 0.19 0.14 70 1015.3
20260830204702 87 54 4.0 10.0 0.00 0.19 0.14 69 1015.4
20260830204203 87 126 4.0 10.0 0.00 0.19 0.14 67 1015.2
20260830203702 87 109 5.0 10.0 0.00 0.19 0.14 67 1015.2
20260830203202 87 93 5.0 10.0 0.00 0.19 0.14 67 1015.2
20260830202702 87 8 5.0 9.0 0.00 0.19 0.14 66 1015.4
20260830202201 87 77 5.0 12.0 0.00 0.19 0.14 65 1015.3
20260830201700 87 105 5.0 12.0 0.00 0.19 0.14 66 1015.5
20260830201200 88 122 5.0 9.0 0.00 0.19 0.14 65 1015.6
20260830200703 88 19 5.0 11.0 0.00 0.19 0.14 64 1015.6
20260830200200 88 305 5.0 11.0 0.00 0.19 0.14 65 1015.7
20260830195701 88 26 5.0 11.0 0.00 0.19 0.14 66 1015.8
20260830195201 88 115 5.0 11.0 0.01 0.19 0.14 66 1015.9
20260830194701 87 48 5.0 10.0 0.01 0.19 0.14 66 1016.0
20260830194200 87 121 5.0 10.0 0.01 0.19 0.14 66 1016.0
20260830193700 86 130 4.0 9.0 0.01 0.19 0.14 66 1016.1
20260830193200 86 26 3.0 9.0 0.01 0.19 0.14 66 1016.1
20260830192700 85 13 3.0 5.0 0.01 0.19 0.14 70 1016.1
20260830192200 85 13 2.0 5.0 0.01 0.19 0.14 71 1016.1
20260830190700 85 0 3.0 9.0 0.01 0.19 0.14 71 1016.1
20260830190159 86 24 4.0 11.0 0.01 0.19 0.14 69 1016.0
20260830185659 87 91 5.0 12.0 0.00 0.18 0.14 67 1016.0
20260830184655 89 47 5.0 10.0 0.00 0.18 0.13 64 1016.0
20260830184154 88 15 3.0 9.0 0.00 0.18 0.13 63 1016.1
20260830183655 88 130 2.0 7.0 0.00 0.18 0.13 64 1016.1
20260830183155 88 144 2.0 7.0 0.00 0.18 0.13 63 1016.2
20260830182655 88 7 3.0 7.0 0.00 0.18 0.13 65 1016.2
20260830182154 90 49 3.0 8.0 0.00 0.18 0.13 61 1016.4
20260830181653 90 318 4.0 8.0 0.00 0.18 0.13 59 1016.4
20260830181152 89 356 4.0 9.0 0.00 0.18 0.13 60 1016.4
20260830180149 91 84 3.0 9.0 0.00 0.18 0.13 57 1016.4
20260830175653 91 25 2.0 9.0 0.00 0.18 0.13 58 1016.5
20260830175150 90 282 2.0 6.0 0.00 0.18 0.13 58 1016.5
20260830174650 90 74 2.0 7.0 0.00 0.18 0.13 58 1016.5
20260830174150 90 47 3.0 8.0 0.00 0.18 0.13 60 1016.6
20260830173650 89 4 4.0 9.0 0.00 0.18 0.13 57 1016.7
20260830173150 89 332 3.0 9.0 0.00 0.18 0.13 61 1016.7
20260830172650 89 17 2.0 9.0 0.00 0.18 0.13 60 1016.8
20260830171649 87 31 2.0 7.0 0.00 0.18 0.13 59 1016.9
20260830171148 87 25 2.0 7.0 0.00 0.18 0.13 63 1017.0
20260830170649 88 31 2.0 7.0 0.00 0.18 0.13 62 1017.0
20260830170149 89 110 2.0 8.0 0.00 0.18 0.13 61 1017.1
20260830165649 89 0 2.0 8.0 0.00 0.18 0.13 58 1017.1
20260830165149 88 24 3.0 6.0 0.00 0.18 0.13 60 1017.1
20260830164648 87 26 3.0 6.0 0.00 0.18 0.13 64 1017.3
20260830164149 89 71 3.0 8.0 0.00 0.18 0.13 64 1017.4
20260830163649 89 350 2.0 8.0 0.00 0.18 0.13 61 1017.5
20260830163150 89 84 2.0 6.0 0.00 0.18 0.13 57 1017.6
20260830162649 88 135 2.0 7.0 0.00 0.18 0.13 64 1017.7
20260830162149 88 56 3.0 7.0 0.00 0.18 0.13 65 1017.7
20260830161648 88 0 2.0 7.0 0.00 0.18 0.13 68 1017.8
20260830161147 87 355 2.0 6.0 0.00 0.18 0.13 68 1017.8
20260830160648 87 125 1.0 4.0 0.00 0.18 0.13 66 1017.8
20260830160147 86 0 2.0 4.0 0.00 0.18 0.13 70 1017.8
20260830155643 85 200 2.0 5.0 0.00 0.18 0.13 70 1017.8
20260830155142 85 143 3.0 6.0 0.00 0.18 0.13 69 1017.8
20260830154143 85 97 2.0 7.0 0.00 0.18 0.13 70 1017.8
20260830153644 86 78 2.0 6.0 0.00 0.18 0.13 69 1017.8
20260830153144 86 0 2.0 6.0 0.00 0.18 0.13 69 1017.8
20260830152644 86 277 2.0 5.0 0.00 0.18 0.13 72 1017.9
20260830152145 87 117 2.0 5.0 0.00 0.18 0.13 69 1017.9
20260830151645 86 64 2.0 5.0 0.00 0.18 0.13 72 1017.9
20260830151141 87 34 2.0 6.0 0.00 0.18 0.13 73 1017.9
20260830150640 86 329 1.0 6.0 0.00 0.18 0.13 69 1017.9